User: anonymous   Login
Location: Churchill
(58.7670°N, 94.1670°W)
Time: 13:21:16
(UTC-05:00)
Language:

Cosmos 1315 Rocket - Orbit

View from above orbital plane
View from above orbital plane
View from above satellite
View from above satellite

Ground track
Ground track

The orbit data is extracted from the following two-line orbital elements,

1 12904U 81103B   16150.18851488  .00000760  00000-0  51678-4 0  9999
2 12904  81.1767 354.0076 0027695 247.8422 111.9861 15.04936657435062
Epoch (UTC): 29 May 2016 04:31:27
Eccentricity: 0.0027695
inclination: 81.1767°
perigee height: 532 km
apogee height: 571 km
right ascension of ascending node: 354.0076°
argument of perigee: 247.8422°
revolutions per day: 15.04936657
mean anomaly at epoch: 111.9861°
orbit number at epoch: 43506

The dashed part of the orbit path shows where the satellite is in the earth's shadow,  

DLR